Time,TemperatureF,DewpointF,PressureIn,WindDirection,WindDirectionDegrees,WindSpeedMPH,WindSpeedGustMPH,Humidity,HourlyPrecipIn,Conditions,Clouds,dailyrainin,SoftwareType,DateUTC
2013-06-15 00:13:00,56.7,55.0,30.04,NNE,25,0.0,0.0,94,0.00,,,0.00,weatherlink.com 1.10,2013-06-15 04:13:00,
2013-06-15 00:31:00,56.3,55.0,30.04,NNE,24,0.0,0.0,94,0.00,,,0.00,weatherlink.com 1.10,2013-06-15 04:31:00,
2013-06-15 00:51:00,55.9,55.0,30.05,NNE,25,0.0,0.0,95,0.00,,,0.00,weatherlink.com 1.10,2013-06-15 04:51:00,
2013-06-15 01:09:00,55.6,54.0,30.04,NNW,327,0.0,0.0,95,0.00,,,0.00,weatherlink.com 1.10,2013-06-15 05:09:00,
2013-06-15 01:27:00,55.3,54.0,30.04,NNW,327,0.0,0.0,95,0.00,,,0.00,weatherlink.com 1.10,2013-06-15 05:27:00,
2013-06-15 01:47:00,54.9,54.0,30.03,NNW,327,0.0,0.0,96,0.00,,,0.00,weatherlink.com 1.10,2013-06-15 05:47:00,
2013-06-15 02:05:00,54.8,54.0,30.03,NNW,327,0.0,0.0,96,0.00,,,0.00,weatherlink.com 1.10,2013-06-15 06:05:00,
2013-06-15 02:23:00,54.1,53.0,30.03,NNW,327,0.0,0.0,96,0.00,,,0.00,weatherlink.com 1.10,2013-06-15 06:23:00,
2013-06-15 02:41:00,53.1,52.0,30.03,NNW,327,0.0,0.0,96,0.00,,,0.00,weatherlink.com 1.10,2013-06-15 06:41:00,
2013-06-15 03:01:00,52.4,51.0,30.03,NNW,328,0.0,0.0,96,0.00,,,0.00,weatherlink.com 1.10,2013-06-15 07:01:00,
2013-06-15 03:19:00,52.1,51.0,30.03,NNW,327,0.0,0.0,97,0.00,,,0.00,weatherlink.com 1.10,2013-06-15 07:19:00,
2013-06-15 03:37:00,52.0,51.0,30.02,NNW,328,0.0,0.0,97,0.00,,,0.00,weatherlink.com 1.10,2013-06-15 07:37:00,
2013-06-15 03:57:00,52.1,51.0,30.03,NNW,327,0.0,0.0,97,0.00,,,0.00,weatherlink.com 1.10,2013-06-15 07:57:00,
2013-06-15 04:15:00,51.7,51.0,30.03,NNW,327,0.0,0.0,98,0.00,,,0.00,weatherlink.com 1.10,2013-06-15 08:15:00,
2013-06-15 04:33:00,50.8,50.0,30.04,NNW,328,0.0,0.0,97,0.00,,,0.00,weatherlink.com 1.10,2013-06-15 08:33:00,
2013-06-15 04:53:00,51.5,51.0,30.05,NNW,328,0.0,0.0,98,0.00,,,0.00,weatherlink.com 1.10,2013-06-15 08:53:00,
2013-06-15 05:11:00,51.3,51.0,30.06,NNW,328,0.0,0.0,98,0.00,,,0.00,weatherlink.com 1.10,2013-06-15 09:11:00,
2013-06-15 05:29:00,50.6,50.0,30.07,NNW,329,0.0,0.0,97,0.00,,,0.00,weatherlink.com 1.10,2013-06-15 09:29:00,
2013-06-15 05:49:00,50.6,50.0,30.07,NNW,328,0.0,0.0,98,0.00,,,0.00,weatherlink.com 1.10,2013-06-15 09:49:00,
2013-06-15 06:07:00,50.9,50.0,30.07,NNW,328,0.0,0.0,98,0.00,,,0.00,weatherlink.com 1.10,2013-06-15 10:07:00,
2013-06-15 06:25:00,51.2,51.0,30.09,NNW,329,0.0,0.0,98,0.00,,,0.00,weatherlink.com 1.10,2013-06-15 10:25:00,
2013-06-15 06:43:00,51.9,51.0,30.09,NNW,328,0.0,0.0,98,0.00,,,0.00,weatherlink.com 1.10,2013-06-15 10:43:00,
2013-06-15 07:03:00,52.5,52.0,30.09,NNW,329,0.0,0.0,98,0.00,,,0.00,weatherlink.com 1.10,2013-06-15 11:03:00,
2013-06-15 07:23:00,55.1,55.0,30.09,NE,51,0.0,0.0,99,0.00,,,0.00,weatherlink.com 1.10,2013-06-15 11:23:00,
2013-06-15 07:40:00,56.6,56.0,30.10,ENE,63,0.0,0.0,98,0.00,,,0.00,weatherlink.com 1.10,2013-06-15 11:40:00,
2013-06-15 07:58:00,58.3,58.0,30.11,ENE,65,0.0,2.0,97,0.00,,,0.00,weatherlink.com 1.10,2013-06-15 11:58:00,
2013-06-15 08:16:00,59.8,58.0,30.11,ENE,64,4.0,4.0,94,0.00,,,0.00,weatherlink.com 1.10,2013-06-15 12:16:00,
2013-06-15 08:35:00,61.3,58.0,30.12,East,83,1.0,4.0,88,0.00,,,0.00,weatherlink.com 1.10,2013-06-15 12:35:00,
2013-06-15 08:53:00,62.7,58.0,30.13,NE,51,6.0,6.0,83,0.00,,,0.00,weatherlink.com 1.10,2013-06-15 12:53:00,
2013-06-15 09:13:00,63.2,58.0,30.13,NE,53,1.0,6.0,83,0.00,,,0.00,weatherlink.com 1.10,2013-06-15 13:13:00,
2013-06-15 09:31:00,64.3,57.0,30.13,ENE,60,4.0,7.0,77,0.00,,,0.00,weatherlink.com 1.10,2013-06-15 13:31:00,
2013-06-15 09:49:00,65.3,57.0,30.12,ENE,60,1.0,5.0,74,0.00,,,0.00,weatherlink.com 1.10,2013-06-15 13:49:00,
2013-06-15 10:09:00,66.0,56.0,30.11,NE,47,4.0,8.0,71,0.00,,,0.00,weatherlink.com 1.10,2013-06-15 14:09:00,
2013-06-15 10:27:00,67.3,57.0,30.11,ENE,67,2.0,6.0,70,0.00,,,0.00,weatherlink.com 1.10,2013-06-15 14:27:00,
2013-06-15 10:45:00,68.5,56.0,30.11,ESE,115,3.0,7.0,65,0.00,,,0.00,weatherlink.com 1.10,2013-06-15 14:45:00,
2013-06-15 11:05:00,69.1,54.0,30.11,ESE,111,4.0,8.0,60,0.00,,,0.00,weatherlink.com 1.10,2013-06-15 15:05:00,
2013-06-15 11:23:00,69.9,52.0,30.11,ESE,108,2.0,8.0,54,0.00,,,0.00,weatherlink.com 1.10,2013-06-15 15:23:00,
2013-06-15 11:41:00,70.1,50.0,30.11,SSE,152,2.0,8.0,50,0.00,,,0.00,weatherlink.com 1.10,2013-06-15 15:41:00,
2013-06-15 12:01:00,70.7,52.0,30.10,ESE,108,7.0,7.0,51,0.00,,,0.00,weatherlink.com 1.10,2013-06-15 16:01:00,
2013-06-15 12:19:00,72.0,50.0,30.10,East,91,1.0,9.0,46,0.00,,,0.00,weatherlink.com 1.10,2013-06-15 16:19:00,
2013-06-15 12:36:00,72.4,50.0,30.09,ESE,117,6.0,6.0,46,0.00,,,0.00,weatherlink.com 1.10,2013-06-15 16:36:00,
2013-06-15 12:56:00,73.4,48.0,30.09,SSE,164,6.0,6.0,40,0.00,,,0.00,weatherlink.com 1.10,2013-06-15 16:56:00,
2013-06-15 13:14:00,72.6,48.0,30.08,SSW,198,4.0,7.0,42,0.00,,,0.00,weatherlink.com 1.10,2013-06-15 17:14:00,
2013-06-15 13:32:00,73.7,50.0,30.08,SE,127,2.0,9.0,43,0.00,,,0.00,weatherlink.com 1.10,2013-06-15 17:32:00,
2013-06-15 13:52:00,74.9,49.0,30.07,SE,143,6.0,8.0,40,0.00,,,0.00,weatherlink.com 1.10,2013-06-15 17:52:00,
2013-06-15 14:09:00,74.6,49.0,30.07,SSE,154,5.0,8.0,41,0.00,,,0.00,weatherlink.com 1.10,2013-06-15 18:09:00,
2013-06-15 14:29:00,74.5,48.0,30.06,SE,138,4.0,6.0,39,0.00,,,0.00,weatherlink.com 1.10,2013-06-15 18:29:00,
2013-06-15 14:47:00,73.9,48.0,30.06,SSE,159,1.0,7.0,40,0.00,,,0.00,weatherlink.com 1.10,2013-06-15 18:47:00,
2013-06-15 15:05:00,75.3,48.0,30.05,ESE,121,2.0,10.0,38,0.00,,,0.00,weatherlink.com 1.10,2013-06-15 19:05:00,
2013-06-15 15:25:00,75.5,48.0,30.05,SSE,150,4.0,9.0,38,0.00,,,0.00,weatherlink.com 1.10,2013-06-15 19:25:00,
2013-06-15 15:43:00,75.3,48.0,30.04,SE,139,4.0,8.0,38,0.00,,,0.00,weatherlink.com 1.10,2013-06-15 19:43:00,
2013-06-15 16:01:00,76.1,49.0,30.04,SE,139,2.0,6.0,38,0.00,,,0.00,weatherlink.com 1.10,2013-06-15 20:01:00,
2013-06-15 16:21:00,76.6,48.0,30.04,SE,125,3.0,7.0,36,0.00,,,0.00,weatherlink.com 1.10,2013-06-15 20:21:00,
2013-06-15 16:39:00,76.7,48.0,30.04,SSE,166,3.0,10.0,36,0.00,,,0.00,weatherlink.com 1.10,2013-06-15 20:39:00,
2013-06-15 16:58:00,77.4,48.0,30.03,ESE,115,3.0,7.0,36,0.00,,,0.00,weatherlink.com 1.10,2013-06-15 20:58:00,
2013-06-15 17:16:00,77.3,48.0,30.03,ENE,57,4.0,7.0,36,0.00,,,0.00,weatherlink.com 1.10,2013-06-15 21:16:00,
2013-06-15 17:34:00,77.9,52.0,30.03,SE,131,2.0,5.0,41,0.00,,,0.00,weatherlink.com 1.10,2013-06-15 21:34:00,
2013-06-15 17:54:00,78.6,51.0,30.02,SE,146,1.0,4.0,38,0.00,,,0.00,weatherlink.com 1.10,2013-06-15 21:54:00,
2013-06-15 18:12:00,78.3,53.0,30.02,NE,38,1.0,4.0,41,0.00,,,0.00,weatherlink.com 1.10,2013-06-15 22:12:00,
2013-06-15 18:30:00,77.9,53.0,30.02,ENE,67,3.0,5.0,42,0.00,,,0.00,weatherlink.com 1.10,2013-06-15 22:30:00,
2013-06-15 18:48:00,77.0,51.0,30.03,NE,53,4.0,6.0,41,0.00,,,0.00,weatherlink.com 1.10,2013-06-15 22:48:00,
2013-06-15 19:08:00,75.7,50.0,30.03,ESE,108,1.0,7.0,41,0.00,,,0.00,weatherlink.com 1.10,2013-06-15 23:08:00,
2013-06-15 19:26:00,75.1,51.0,30.03,NE,54,1.0,4.0,43,0.00,,,0.00,weatherlink.com 1.10,2013-06-15 23:26:00,
2013-06-15 19:44:00,73.1,52.0,30.03,ENE,60,2.0,3.0,47,0.00,,,0.00,weatherlink.com 1.10,2013-06-15 23:44:00,
2013-06-15 20:04:00,71.6,52.0,30.02,ENE,60,0.0,1.0,51,0.00,,,0.00,weatherlink.com 1.10,2013-06-16 00:04:00,
2013-06-15 20:22:00,69.4,53.0,30.02,ENE,60,0.0,0.0,57,0.00,,,0.00,weatherlink.com 1.10,2013-06-16 00:22:00,
2013-06-15 20:40:00,67.9,54.0,30.01,ENE,58,0.0,1.0,61,0.00,,,0.00,weatherlink.com 1.10,2013-06-16 00:40:00,
2013-06-15 21:00:00,66.4,55.0,30.01,ENE,58,0.0,0.0,66,0.00,,,0.00,weatherlink.com 1.10,2013-06-16 01:00:00,
2013-06-15 21:18:00,65.6,53.0,30.00,ENE,58,0.0,1.0,64,0.00,,,0.00,weatherlink.com 1.10,2013-06-16 01:18:00,
2013-06-15 21:36:00,65.0,53.0,30.01,ENE,58,0.0,0.0,66,0.00,,,0.00,weatherlink.com 1.10,2013-06-16 01:36:00,
2013-06-15 21:54:00,64.7,53.0,30.00,ENE,58,0.0,1.0,67,0.00,,,0.00,weatherlink.com 1.10,2013-06-16 01:54:00,
2013-06-15 22:14:00,64.8,53.0,30.01,ENE,58,0.0,0.0,66,0.00,,,0.00,weatherlink.com 1.10,2013-06-16 02:14:00,
2013-06-15 22:32:00,64.6,55.0,30.01,ENE,58,0.0,0.0,70,0.00,,,0.00,weatherlink.com 1.10,2013-06-16 02:32:00,
2013-06-15 22:50:00,63.6,55.0,30.02,ENE,58,0.0,0.0,73,0.00,,,0.00,weatherlink.com 1.10,2013-06-16 02:50:00,
2013-06-15 23:10:00,63.6,55.0,30.02,ENE,58,0.0,0.0,74,0.00,,,0.00,weatherlink.com 1.10,2013-06-16 03:10:00,
2013-06-15 23:28:00,63.4,55.0,30.02,ENE,58,0.0,0.0,75,0.00,,,0.00,weatherlink.com 1.10,2013-06-16 03:28:00,
2013-06-15 23:46:00,63.4,56.0,30.02,ENE,58,0.0,0.0,76,0.00,,,0.00,weatherlink.com 1.10,2013-06-16 03:46:00,